• In Russia
  • List of Countries
  • For 7 days
  • Water Temperature
  • Satellite Maps
  • Weather Map
  • Weather Widgets
  • user-avatar
    Login

    Hourly Weather Odienne

    Today, 23 October, Tuesday

    Time Temperature Precipitation Wind Pressure Humidity
    00:00 +26°C° 0 mm 2 mps 723 mmHg 79%
    01:00 +25°C° 0 mm 1 mps 723 mmHg 82%
    02:00 +25°C° 0 mm 1 mps 722 mmHg 85%
    03:00 +25°C° 0 mm 1 mps 722 mmHg 85%
    04:00 +24°C° 0 mm 1 mps 723 mmHg 85%
    05:00 +24°C° 0 mm 1 mps 723 mmHg 86%
    06:00 +26°C° 0 mm 1 mps 723 mmHg 81%
    07:00 +27°C° 0 mm 1 mps 724 mmHg 76%
    08:00 +28°C° 0 mm 1 mps 724 mmHg 72%
    09:00 +30°C° 0 mm 1 mps 724 mmHg 66%
    10:00 +32°C° 0 mm 1 mps 724 mmHg 60%
    11:00 +33°C° 0 mm 1 mps 724 mmHg 54%
    12:00 +34°C° 0 mm 1 mps 723 mmHg 51%
    13:00 +34°C° 0 mm 1 mps 722 mmHg 48%
    14:00 +35°C° 0 mm 1 mps 722 mmHg 45%
    15:00 +33°C° 0 mm 1 mps 721 mmHg 50%
    16:00 +32°C° 0 mm 1 mps 721 mmHg 55%
    17:00 +30°C° 0 mm 1 mps 721 mmHg 61%
    18:00 +30°C° 0 mm 1 mps 722 mmHg 62%
    19:00 +29°C° 0 mm 1 mps 722 mmHg 62%
    20:00 +28°C° 0 mm 1 mps 723 mmHg 63%
    21:00 +28°C° 0 mm 1 mps 723 mmHg 65%
    22:00 +27°C° 0 mm 1 mps 723 mmHg 67%
    23:00 +27°C° 0 mm 1 mps 723 mmHg 69%

    Tomorrow, 24 October, Wednesday

    Time Temperature Precipitation Wind Pressure Humidity
    00:00 +26°C° 0 mm 1 mps 722 mmHg 71%
    01:00 +26°C° 0 mm 1 mps 722 mmHg 73%
    02:00 +25°C° 0 mm 1 mps 722 mmHg 75%
    03:00 +25°C° 0 mm 1 mps 722 mmHg 77%
    04:00 +25°C° 0 mm 1 mps 722 mmHg 79%
    05:00 +24°C° 0 mm 1 mps 722 mmHg 81%
    06:00 +26°C° 0 mm 1 mps 722 mmHg 76%
    07:00 +28°C° 0 mm 1 mps 723 mmHg 71%
    08:00 +30°C° 0 mm 1 mps 724 mmHg 66%
    09:00 +32°C° 0 mm 1 mps 723 mmHg 59%
    10:00 +32°C° 0 mm 0 mps 723 mmHg 52%
    11:00 +35°C° 0 mm 0 mps 723 mmHg 45%
    12:00 +37°C° 0 mm 1 mps 722 mmHg 42%
    13:00 +37°C° 0 mm 1 mps 721 mmHg 39%
    14:00 +37°C° 0 mm 1 mps 721 mmHg 36%
    15:00 +35°C° 0 mm 1 mps 721 mmHg 41%
    16:00 +33°C° 0 mm 1 mps 720 mmHg 47%
    17:00 +29°C° 0 mm 0 mps 720 mmHg 53%
    18:00 +30°C° 0 mm 1 mps 721 mmHg 55%
    19:00 +30°C° 0 mm 1 mps 721 mmHg 56%
    20:00 +29°C° 0 mm 1 mps 722 mmHg 58%
    21:00 +28°C° 0 mm 1 mps 722 mmHg 61%
    22:00 +28°C° 0 mm 1 mps 722 mmHg 64%
    23:00 +27°C° 0 mm 1 mps 722 mmHg 67%

    Day after tomorrow, 25 October, Thursday

    Time Temperature Precipitation Wind Pressure Humidity
    00:00 +27°C° 0 mm 1 mps 722 mmHg 70%
    01:00 +26°C° 0 mm 1 mps 721 mmHg 73%
    02:00 +26°C° 0 mm 1 mps 721 mmHg 76%
    03:00 +26°C° 0 mm 1 mps 721 mmHg 78%
    04:00 +25°C° 0 mm 1 mps 721 mmHg 80%
    05:00 +25°C° 0 mm 1 mps 721 mmHg 82%
    06:00 +26°C° 0 mm 1 mps 722 mmHg 78%
    07:00 +28°C° 0 mm 2 mps 723 mmHg 73%
    08:00 +30°C° 0 mm 2 mps 723 mmHg 69%
    09:00 +31°C° 0 mm 2 mps 723 mmHg 62%
    10:00 +34°C° 0 mm 2 mps 723 mmHg 55%
    11:00 +36°C° 0 mm 2 mps 722 mmHg 49%
    12:00 +37°C° 0 mm 2 mps 722 mmHg 46%
    13:00 +37°C° 0 mm 2 mps 721 mmHg 43%
    14:00 +37°C° 0 mm 2 mps 720 mmHg 40%
    15:00 +35°C° 0 mm 1 mps 720 mmHg 47%
    16:00 +33°C° 0 mm 1 mps 720 mmHg 53%
    17:00 +31°C° 0 mm 1 mps 720 mmHg 60%
    18:00 +30°C° 0 mm 1 mps 721 mmHg 62%
    19:00 +30°C° 0 mm 1 mps 722 mmHg 63%
    20:00 +29°C° 0 mm 1 mps 722 mmHg 65%
    21:00 +28°C° 0 mm 1 mps 722 mmHg 67%
    22:00 +28°C° 0 mm 1 mps 722 mmHg 68%
    23:00 +27°C° 0 mm 1 mps 722 mmHg 70%

    26 October, Friday

    Time Temperature Precipitation Wind Pressure Humidity
    00:00 +27°C° 0 mm 1 mps 722 mmHg 73%
    01:00 +27°C° 0 mm 1 mps 721 mmHg 75%
    02:00 +26°C° 0 mm 1 mps 721 mmHg 77%
    03:00 +26°C° 0 mm 1 mps 721 mmHg 79%
    04:00 +25°C° 0 mm 1 mps 721 mmHg 81%
    05:00 +25°C° 0 mm 1 mps 721 mmHg 83%
    06:00 +27°C° 0 mm 1 mps 722 mmHg 78%
    07:00 +28°C° 0 mm 1 mps 723 mmHg 73%
    08:00 +30°C° 0 mm 1 mps 723 mmHg 68%
    09:00 +31°C° 0 mm 1 mps 723 mmHg 64%
    10:00 +32°C° 0 mm 1 mps 723 mmHg 59%
    11:00 +34°C° 0 mm 1 mps 722 mmHg 55%
    12:00 +33°C° 0 mm 1 mps 722 mmHg 59%
    13:00 +32°C° 0 mm 1 mps 721 mmHg 63%
    14:00 +31°C° 0 mm 1 mps 720 mmHg 67%
    15:00 +30°C° 0 mm 1 mps 720 mmHg 69%
    16:00 +30°C° 0 mm 1 mps 721 mmHg 71%
    17:00 +29°C° 0 mm 1 mps 721 mmHg 74%
    18:00 +28°C° 0 mm 1 mps 721 mmHg 73%
    19:00 +26°C° 0 mm 0 mps 722 mmHg 73%
    20:00 +25°C° 0 mm 0 mps 722 mmHg 72%
    21:00 +25°C° 0.1 mm 0 mps 723 mmHg 73%
    22:00 +26°C° 0.1 mm 1 mps 723 mmHg 74%
    23:00 +26°C° 0.1 mm 1 mps 723 mmHg 74%

    27 October, Saturday

    Time Temperature Precipitation Wind Pressure Humidity
    00:00 +26°C° 0.1 mm 1 mps 722 mmHg 78%
    01:00 +25°C° 0.1 mm 1 mps 722 mmHg 82%
    02:00 +25°C° 0.1 mm 1 mps 722 mmHg 85%
    03:00 +24°C° 0 mm 1 mps 722 mmHg 87%
    04:00 +24°C° 0 mm 1 mps 722 mmHg 89%
    05:00 +24°C° 0 mm 1 mps 722 mmHg 90%
    06:00 +25°C° 0 mm 1 mps 722 mmHg 86%
    07:00 +27°C° 0 mm 2 mps 723 mmHg 81%
    08:00 +28°C° 0 mm 2 mps 724 mmHg 77%
    09:00 +30°C° 0 mm 2 mps 723 mmHg 67%
    10:00 +33°C° 0 mm 1 mps 723 mmHg 58%
    11:00 +35°C° 0 mm 1 mps 723 mmHg 49%
    12:00 +35°C° 0 mm 1 mps 722 mmHg 47%
    13:00 +35°C° 0 mm 1 mps 721 mmHg 46%
    14:00 +36°C° 0 mm 1 mps 720 mmHg 44%
    15:00 +34°C° 0 mm 1 mps 721 mmHg 50%
    16:00 +32°C° 0 mm 1 mps 721 mmHg 55%
    17:00 +31°C° 0 mm 1 mps 721 mmHg 61%
    18:00 +30°C° 0 mm 1 mps 722 mmHg 62%
    19:00 +30°C° 0 mm 1 mps 722 mmHg 63%
    20:00 +29°C° 0 mm 1 mps 723 mmHg 64%
    21:00 +28°C° 0.3 mm 1 mps 723 mmHg 69%
    22:00 +27°C° 0.3 mm 1 mps 723 mmHg 74%
    23:00 +26°C° 0.3 mm 1 mps 722 mmHg 79%

    28 October, Sunday

    Time Temperature Precipitation Wind Pressure Humidity
    00:00 +26°C° 0.1 mm 1 mps 722 mmHg 82%
    01:00 +26°C° 0.1 mm 1 mps 722 mmHg 85%
    02:00 +25°C° 0.1 mm 1 mps 722 mmHg 87%
    03:00 +25°C° 0 mm 1 mps 722 mmHg 89%
    04:00 +25°C° 0 mm 1 mps 722 mmHg 90%
    05:00 +25°C° 0 mm 1 mps 723 mmHg 91%
    06:00 +26°C° 0 mm 1 mps 723 mmHg 87%
    07:00 +27°C° 0 mm 2 mps 724 mmHg 83%
    08:00 +28°C° 0 mm 2 mps 724 mmHg 79%
    09:00 +30°C° 0 mm 2 mps 724 mmHg 70%
    10:00 +32°C° 0 mm 1 mps 724 mmHg 61%
    11:00 +34°C° 0 mm 1 mps 723 mmHg 53%
    12:00 +34°C° 0 mm 1 mps 723 mmHg 50%
    13:00 +36°C° 0 mm 2 mps 722 mmHg 48%
    14:00 +36°C° 0 mm 2 mps 721 mmHg 46%
    15:00 +33°C° 0 mm 1 mps 721 mmHg 52%
    16:00 +32°C° 0 mm 1 mps 721 mmHg 58%
    17:00 +30°C° 0 mm 1 mps 721 mmHg 64%
    18:00 +29°C° 0.2 mm 1 mps 722 mmHg 67%
    19:00 +29°C° 0.2 mm 1 mps 723 mmHg 69%
    20:00 +28°C° 0.2 mm 1 mps 723 mmHg 72%
    21:00 +27°C° 0.6 mm 1 mps 723 mmHg 77%
    22:00 +26°C° 0.6 mm 1 mps 723 mmHg 82%
    23:00 +26°C° 0.6 mm 1 mps 723 mmHg 87%

    29 October, Monday

    Time Temperature Precipitation Wind Pressure Humidity
    00:00 +25°C° 0.1 mm 1 mps 723 mmHg 88%
    01:00 +25°C° 0.1 mm 1 mps 722 mmHg 89%
    02:00 +25°C° 0.1 mm 1 mps 722 mmHg 90%
    03:00 +25°C° 0.2 mm 1 mps 722 mmHg 91%
    04:00 +24°C° 0.2 mm 1 mps 722 mmHg 92%
    05:00 +22°C° 0.2 mm 0 mps 723 mmHg 93%
    06:00 +26°C° 0 mm 1 mps 723 mmHg 88%
    07:00 +27°C° 0 mm 1 mps 724 mmHg 82%
    08:00 +29°C° 0 mm 1 mps 724 mmHg 77%
    09:00 +30°C° 0 mm 1 mps 724 mmHg 69%
    10:00 +32°C° 0 mm 1 mps 723 mmHg 62%
    11:00 +34°C° 0 mm 1 mps 723 mmHg 54%
    12:00 +34°C° 0.2 mm 1 mps 722 mmHg 52%
    13:00 +35°C° 0.2 mm 1 mps 722 mmHg 50%
    14:00 +35°C° 0.2 mm 1 mps 721 mmHg 47%
    15:00 +34°C° 0 mm 1 mps 721 mmHg 53%
    16:00 +32°C° 0 mm 1 mps 721 mmHg 58%
    17:00 +29°C° 0 mm 0 mps 721 mmHg 64%
    18:00 +28°C° 0 mm 0 mps 721 mmHg 65%
    19:00 +27°C° 0 mm 0 mps 722 mmHg 66%
    20:00 +27°C° 0 mm 0 mps 722 mmHg 67%
    21:00 +28°C° 0.2 mm 1 mps 722 mmHg 69%
    22:00 +28°C° 0.2 mm 1 mps 722 mmHg 72%
    23:00 +27°C° 0.2 mm 1 mps 722 mmHg 74%
    Show more